TimeCDT,TemperatureF,Dew PointF,Humidity,Sea Level PressureIn,VisibilityMPH,Wind Direction,Wind SpeedMPH,Gust SpeedMPH,PrecipitationIn,Events,Conditions,WindDirDegrees,DateUTC
12:52 AM,68.0,62.1,81,30.05,10.0,NW,4.6,-,N/A,,Partly Cloudy,320,2013-08-10 05:52:00
1:52 AM,66.9,61.0,81,30.05,10.0,NNW,4.6,-,N/A,,Partly Cloudy,340,2013-08-10 06:52:00
2:52 AM,64.0,60.1,87,30.06,10.0,Calm,Calm,-,N/A,,Clear,0,2013-08-10 07:52:00
3:52 AM,63.0,59.0,87,30.07,10.0,Calm,Calm,-,N/A,,Clear,0,2013-08-10 08:52:00
4:52 AM,60.1,57.0,90,30.08,10.0,North,3.5,-,N/A,,Clear,350,2013-08-10 09:52:00
5:52 AM,59.0,57.0,93,30.09,9.0,North,5.8,-,N/A,,Clear,10,2013-08-10 10:52:00
6:52 AM,62.1,60.1,93,30.10,7.0,NNE,3.5,-,N/A,,Clear,20,2013-08-10 11:52:00
7:52 AM,66.0,63.0,90,30.10,8.0,North,3.5,-,N/A,,Clear,360,2013-08-10 12:52:00
8:52 AM,73.0,64.0,73,30.11,10.0,NNE,4.6,-,N/A,,Clear,20,2013-08-10 13:52:00
9:52 AM,75.9,57.9,54,30.11,10.0,NNE,4.6,-,N/A,,Clear,20,2013-08-10 14:52:00
10:52 AM,78.1,54.0,43,30.12,10.0,Calm,Calm,-,N/A,,Clear,0,2013-08-10 15:52:00
11:52 AM,79.0,55.9,45,30.12,10.0,WNW,5.8,-,N/A,,Mostly Cloudy,290,2013-08-10 16:52:00
12:52 PM,80.1,55.0,42,30.12,10.0,East,4.6,-,N/A,,Mostly Cloudy,80,2013-08-10 17:52:00
1:52 PM,80.1,53.1,39,30.11,10.0,Calm,Calm,-,N/A,,Scattered Clouds,0,2013-08-10 18:52:00
2:52 PM,81.0,55.9,42,30.10,10.0,Calm,Calm,-,N/A,,Scattered Clouds,0,2013-08-10 19:52:00
3:52 PM,78.1,55.0,45,30.09,10.0,Variable,3.5,-,N/A,,Overcast,0,2013-08-10 20:52:00
4:52 PM,79.0,57.0,47,30.09,10.0,NNW,9.2,-,N/A,,Mostly Cloudy,340,2013-08-10 21:52:00
5:52 PM,75.9,57.9,54,30.09,10.0,NE,9.2,-,N/A,,Overcast,40,2013-08-10 22:52:00
6:52 PM,73.9,57.0,55,30.09,10.0,NE,6.9,-,N/A,,Overcast,50,2013-08-10 23:52:00
7:52 PM,73.0,55.9,55,30.09,10.0,NNE,3.5,-,N/A,,Overcast,30,2013-08-11 00:52:00
8:52 PM,71.1,55.9,59,30.10,10.0,NE,3.5,-,N/A,,Overcast,50,2013-08-11 01:52:00
9:52 PM,70.0,55.0,59,30.13,10.0,ENE,4.6,-,N/A,,Overcast,60,2013-08-11 02:52:00
10:52 PM,69.1,57.0,65,30.12,10.0,Calm,Calm,-,N/A,,Overcast,0,2013-08-11 03:52:00
11:52 PM,66.0,55.9,70,30.12,10.0,Calm,Calm,-,N/A,,Partly Cloudy,0,2013-08-11 04:52:00